Location: La Brionne
(46.1728°N, 1.7849°E)
Time: 22:58:02
(UTC+00:00)

Cosmos 2100 Rocket - Pass Details

Date: 16 June 2021
Orbit: 955 x 1001 km, 82.9° (Epoch: 02 August)

Event Time Altitude Azimuth Distance (km) Brightness Sun altitude
Rises 21:40:31 0° 348° (NNW) 3,737 8.5 -14.2°
Reaches altitude 10° 21:43:05 10° 346° (NNW) 2,781 7.6 -14.4°
Maximum altitude 21:49:23 64° 267° (W) 1,101 4.4 -15.0°
Enters shadow 21:54:45 14° 189° (S) 2,436 5.6 -15.4°
